contact:dominique.lefevre@mio.osupytheas.fr, maurice.libes@osupytheas.fr, didier.mallarino@osupytheas.fr
Project:EMSO http://www.emso-fr.org/EMSO-France
Depth: 2436.0 m
Title:EMSO Ligure Ouest : Data MII capteur AQUADOPP
Date,Latitude,Longitude,X_East,Y_North,Z_Up,Amplitude_X,Amplitude_Y,Amplitude_Z,Batterie,SoundSpeed,Heading,Pitch,Roll,Pressure,TIS,Speed,Direction
, degrees North, degrees East, m.s-1, m.s-1,m.s-1, 1, 1, 1, Volt, m.s-1, degree, degree, degree, dbar, degree_C, m.s-1, degree
2022-07-30T00:04:03,42.805,6.029,-0.043,0.005,-0.059,102.0,102.0,100.0,13.3,1505.2,323.0,-0.8,1.8,2471.036,13.28,0.043,276.6
2022-07-30T00:07:03,42.805,6.029,-0.012,0.029,-0.029,102.0,102.0,100.0,13.3,1505.2,330.1,-0.8,1.9,2471.036,13.28,0.031,337.5
2022-07-30T00:10:03,42.805,6.029,-0.028,0.01,-0.019,103.0,102.0,100.0,13.4,1505.2,325.5,-0.8,1.8,2471.03,13.28,0.029,289.6
2022-07-30T00:13:03,42.805,6.029,-0.029,0.027,-0.02,103.0,102.0,100.0,13.4,1505.2,325.8,-0.8,1.8,2471.042,13.29,0.039,313.0
2022-07-30T00:16:03,42.805,6.029,-0.028,0.022,-0.033,102.0,102.0,100.0,13.4,1505.2,328.3,-0.8,1.8,2471.05,13.29,0.035,308.2
2022-07-30T00:19:03,42.805,6.029,-0.029,0.041,-0.007,102.0,102.0,101.0,13.3,1505.2,323.7,-0.8,1.8,2470.981,13.29,0.05,324.7
2022-07-30T00:22:03,42.805,6.029,-0.025,0.016,0.002,102.0,103.0,101.0,13.4,1505.2,324.2,-0.7,1.8,2471.009,13.29,0.029,302.6
2022-07-30T00:25:03,42.805,6.029,-0.04,0.013,-0.058,102.0,102.0,100.0,13.4,1505.2,328.7,-0.8,1.8,2471.021,13.29,0.042,288.0
2022-07-30T00:28:03,42.805,6.029,-0.023,0.025,-0.015,102.0,102.0,101.0,13.4,1505.2,327.2,-0.7,1.9,2471.02,13.29,0.033,317.4
2022-07-30T00:31:03,42.805,6.029,-0.027,0.032,-0.025,102.0,100.0,102.0,13.4,1505.2,334.1,-0.7,1.8,2470.972,13.29,0.041,319.8
2022-07-30T00:34:03,42.805,6.029,-0.043,0.014,-0.037,101.0,102.0,101.0,13.4,1505.2,320.2,-0.8,1.8,2470.979,13.29,0.045,288.0
2022-07-30T00:37:03,42.805,6.029,-0.023,0.013,-0.024,102.0,100.0,101.0,13.3,1505.2,331.3,-0.8,1.8,2470.986,13.29,0.026,299.5
2022-07-30T00:40:03,42.805,6.029,-0.01,0.012,-0.015,102.0,103.0,100.0,13.4,1505.2,333.1,-0.7,1.8,2470.985,13.29,0.015,320.2
2022-07-30T00:43:03,42.805,6.029,-0.01,0.007,-0.019,101.0,102.0,101.0,13.4,1505.2,330.5,-0.8,1.8,2470.971,13.29,0.012,305.0
2022-07-30T00:46:03,42.805,6.029,-0.037,0.01,-0.033,102.0,103.0,100.0,13.4,1505.2,332.4,-0.7,1.8,2471.009,13.29,0.038,285.1
2022-07-30T00:49:03,42.805,6.029,-0.019,0.005,-0.037,103.0,101.0,101.0,13.4,1505.2,328.6,-0.8,1.8,2470.994,13.29,0.019,284.7
2022-07-30T00:52:03,42.805,6.029,-0.046,0.012,-0.035,102.0,102.0,101.0,13.4,1505.2,323.3,-0.8,1.8,2470.99,13.29,0.047,284.6
2022-07-30T00:55:03,42.805,6.029,-0.016,0.011,-0.018,102.0,100.0,100.0,13.3,1505.2,325.8,-0.8,1.8,2470.961,13.29,0.019,304.5
2022-07-30T00:58:03,42.805,6.029,0.007,0.019,-0.018,103.0,102.0,101.0,13.4,1505.2,328.7,-0.7,1.8,2470.958,13.29,0.02,20.2
2022-07-30T01:01:03,42.805,6.029,-0.043,-0.002,-0.008,102.0,101.0,101.0,13.3,1505.2,322.0,-0.7,1.8,2470.972,13.29,0.043,267.3
2022-07-30T01:04:03,42.805,6.029,-0.018,0.014,0.0,103.0,104.0,102.0,13.3,1505.2,321.8,-0.7,1.8,2470.972,13.29,0.022,307.9
2022-07-30T01:07:03,42.805,6.029,-0.018,0.016,-0.02,102.0,102.0,101.0,13.3,1505.2,322.3,-0.8,1.8,2470.953,13.29,0.024,311.6
2022-07-30T01:10:03,42.805,6.029,-0.014,-0.005,-0.019,102.0,101.0,100.0,13.3,1505.2,323.7,-0.7,1.8,2470.956,13.29,0.014,250.4
2022-07-30T01:13:03,42.805,6.029,-0.027,-0.001,-0.009,102.0,101.0,101.0,13.4,1505.2,328.6,-0.7,1.8,2470.978,13.29,0.027,267.9
2022-07-30T01:16:03,42.805,6.029,-0.005,0.021,-0.014,100.0,102.0,101.0,13.4,1505.2,332.1,-0.8,1.8,2470.94,13.29,0.021,346.6
2022-07-30T01:19:03,42.805,6.029,-0.023,0.026,-0.035,103.0,103.0,101.0,13.4,1505.2,320.3,-0.8,1.8,2470.892,13.29,0.034,318.5
2022-07-30T01:22:03,42.805,6.029,-0.019,0.0,-0.02,102.0,102.0,100.0,13.3,1505.2,327.6,-0.8,1.8,2470.939,13.29,0.019,270.0
2022-07-30T01:25:03,42.805,6.029,-0.022,0.0,-0.054,102.0,103.0,101.0,13.3,1505.2,319.5,-0.8,1.9,2470.94,13.29,0.022,270.0
2022-07-30T01:28:03,42.805,6.029,-0.04,0.023,-0.021,102.0,102.0,101.0,13.4,1505.2,325.5,-0.8,1.8,2470.954,13.29,0.046,299.9
2022-07-30T01:31:03,42.805,6.029,-0.024,0.017,-0.026,101.0,102.0,101.0,13.4,1505.2,327.8,-0.7,1.7,2470.945,13.29,0.029,305.3
2022-07-30T01:34:03,42.805,6.029,-0.037,0.015,-0.013,101.0,104.0,101.0,13.3,1505.2,323.0,-0.8,1.8,2470.968,13.29,0.039,292.1
2022-07-30T01:37:03,42.805,6.029,-0.009,-0.018,-0.057,103.0,101.0,100.0,13.4,1505.2,326.3,-0.7,1.8,2470.952,13.29,0.02,206.6
2022-07-30T01:40:03,42.805,6.029,-0.016,0.022,-0.006,102.0,102.0,100.0,13.3,1505.2,328.6,-0.8,1.8,2470.945,13.29,0.027,324.0
2022-07-30T01:43:03,42.805,6.029,-0.026,0.016,-0.012,101.0,104.0,101.0,13.3,1505.2,326.3,-0.7,1.8,2470.959,13.29,0.03,301.6
2022-07-30T01:46:03,42.805,6.029,-0.044,0.001,-0.086,100.0,103.0,102.0,13.3,1505.2,325.6,-0.8,1.8,2470.939,13.29,0.044,271.3
2022-07-30T01:49:03,42.805,6.029,-0.039,0.027,-0.041,101.0,102.0,100.0,13.4,1505.2,330.1,-0.8,1.8,2470.939,13.29,0.047,304.7
2022-07-30T01:52:03,42.805,6.029,0.014,0.0,-0.052,103.0,102.0,99.0,13.3,1505.2,319.4,-0.7,1.8,2470.987,13.29,0.014,90.0
2022-07-30T01:55:03,42.805,6.029,-0.003,0.015,-0.024,102.0,103.0,98.0,13.3,1505.2,329.6,-0.8,1.8,2470.93,13.29,0.015,348.7
2022-07-30T01:58:03,42.805,6.029,-0.028,0.02,-0.013,99.0,101.0,103.0,13.4,1505.2,324.7,-0.8,1.8,2470.96,13.29,0.034,305.5
2022-07-30T02:04:03,42.805,6.029,-0.011,0.0,-0.043,103.0,102.0,101.0,13.4,1505.2,328.8,-0.8,1.8,2470.976,13.28,0.011,270.0
2022-07-30T02:07:03,42.805,6.029,-0.024,0.014,-0.025,102.0,101.0,101.0,13.4,1505.2,319.9,-0.8,1.8,2470.993,13.28,0.027,300.3
2022-07-30T02:10:03,42.805,6.029,-0.007,0.004,-0.049,101.0,101.0,101.0,13.3,1505.2,334.1,-0.8,1.8,2470.951,13.28,0.008,299.7
2022-07-30T02:13:03,42.805,6.029,-0.015,0.017,-0.044,102.0,103.0,101.0,13.4,1505.2,322.0,-0.8,1.9,2470.962,13.29,0.022,318.6
2022-07-30T02:16:03,42.805,6.029,-0.027,0.017,-0.003,102.0,101.0,101.0,13.4,1505.2,324.5,-0.8,1.8,2470.922,13.29,0.031,302.2
2022-07-30T02:19:03,42.805,6.029,-0.015,0.027,-0.03,102.0,102.0,101.0,13.3,1505.2,333.6,-0.7,1.8,2470.932,13.29,0.03,330.9
2022-07-30T02:22:03,42.805,6.029,-0.021,0.018,-0.003,102.0,102.0,101.0,13.3,1505.2,320.1,-0.8,1.8,2470.961,13.29,0.027,310.6
2022-07-30T02:25:03,42.805,6.029,-0.028,0.013,-0.02,102.0,103.0,99.0,13.4,1505.2,329.1,-0.7,1.8,2470.939,13.29,0.03,294.9
2022-07-30T02:28:03,42.805,6.029,-0.014,0.007,-0.047,101.0,102.0,101.0,13.4,1505.2,326.7,-0.7,1.8,2470.913,13.29,0.015,296.6
2022-07-30T02:31:03,42.805,6.029,-0.005,0.005,-0.037,103.0,100.0,101.0,13.4,1505.2,324.8,-0.8,1.8,2470.919,13.29,0.007,315.0
2022-07-30T02:34:03,42.805,6.029,0.018,0.016,-0.028,102.0,102.0,100.0,13.4,1505.2,334.4,-0.8,1.8,2470.9,13.29,0.024,48.4
2022-07-30T02:37:03,42.805,6.029,-0.026,0.013,-0.016,102.0,103.0,101.0,13.3,1505.2,327.8,-0.8,1.8,2470.908,13.29,0.029,296.6
2022-07-30T02:40:03,42.805,6.029,0.001,0.003,-0.045,101.0,101.0,101.0,13.3,1505.2,321.1,-0.8,1.8,2470.854,13.29,0.003,18.4
2022-07-30T02:43:03,42.805,6.029,-0.01,-0.001,-0.028,100.0,102.0,101.0,13.4,1505.2,318.6,-0.8,1.8,2470.93,13.29,0.01,264.3
2022-07-30T02:46:03,42.805,6.029,-0.019,-0.003,-0.057,101.0,104.0,100.0,13.3,1505.2,330.3,-0.7,1.8,2470.945,13.29,0.019,261.0
2022-07-30T02:49:03,42.805,6.029,-0.009,-0.008,-0.05,101.0,102.0,102.0,13.3,1505.2,327.0,-0.7,1.8,2470.912,13.29,0.012,228.4
2022-07-30T02:52:03,42.805,6.029,-0.046,0.015,-0.048,103.0,102.0,100.0,13.4,1505.2,322.7,-0.8,1.8,2470.878,13.29,0.048,288.1
2022-07-30T02:55:03,42.805,6.029,-0.032,0.011,-0.048,102.0,102.0,100.0,13.4,1505.2,328.7,-0.8,1.8,2470.908,13.29,0.033,289.0
2022-07-30T02:58:03,42.805,6.029,-0.019,-0.005,-0.036,100.0,103.0,101.0,13.4,1505.2,319.1,-0.8,1.8,2470.926,13.29,0.019,255.3
2022-07-30T03:01:03,42.805,6.029,-0.011,0.006,-0.023,101.0,103.0,100.0,13.4,1505.2,332.1,-0.8,1.8,2470.927,13.29,0.012,298.6
2022-07-30T03:04:03,42.805,6.029,-0.02,-0.007,-0.037,102.0,102.0,101.0,13.4,1505.2,319.2,-0.7,1.8,2470.935,13.29,0.021,250.7
2022-07-30T03:07:03,42.805,6.029,-0.026,0.0,-0.035,102.0,102.0,100.0,13.3,1505.2,322.8,-0.8,1.8,2470.853,13.29,0.026,270.0
2022-07-30T03:10:03,42.805,6.029,-0.022,0.015,-0.024,100.0,103.0,101.0,13.4,1505.2,327.0,-0.8,1.8,2470.959,13.29,0.026,304.3
2022-07-30T03:13:03,42.805,6.029,-0.03,0.014,-0.035,103.0,101.0,100.0,13.3,1505.2,332.4,-0.7,1.8,2470.916,13.29,0.033,295.0
2022-07-30T03:16:03,42.805,6.029,-0.021,0.018,0.005,100.0,103.0,101.0,13.3,1505.2,327.8,-0.8,1.8,2470.924,13.29,0.027,310.6
2022-07-30T03:19:03,42.805,6.029,-0.018,0.033,0.008,101.0,101.0,100.0,13.4,1505.2,323.8,-0.8,1.8,2470.927,13.29,0.037,331.4
2022-07-30T03:22:03,42.805,6.029,-0.034,0.038,-0.01,102.0,102.0,100.0,13.4,1505.2,326.9,-0.8,1.8,2470.94,13.29,0.05,318.2
2022-07-30T03:25:03,42.805,6.029,-0.034,0.001,-0.101,103.0,101.0,101.0,13.4,1505.2,324.8,-0.8,1.8,2470.935,13.29,0.034,271.7
2022-07-30T03:28:03,42.805,6.029,-0.025,-0.014,-0.013,103.0,101.0,101.0,13.3,1505.2,323.3,-0.8,1.8,2470.913,13.29,0.028,240.7
2022-07-30T03:31:03,42.805,6.029,-0.042,0.01,-0.034,101.0,101.0,101.0,13.3,1505.2,324.2,-0.7,1.8,2470.902,13.29,0.043,283.4
2022-07-30T03:34:03,42.805,6.029,-0.03,0.011,-0.023,101.0,104.0,100.0,13.4,1505.2,325.5,-0.7,1.8,2470.902,13.29,0.031,290.1
2022-07-30T03:37:03,42.805,6.029,-0.016,-0.01,-0.017,100.0,103.0,101.0,13.3,1505.2,326.9,-0.8,1.9,2470.936,13.29,0.018,238.0
2022-07-30T03:40:03,42.805,6.029,-0.017,0.007,-0.032,102.0,101.0,102.0,13.3,1505.2,330.4,-0.8,1.8,2470.889,13.29,0.018,292.4
2022-07-30T03:43:03,42.805,6.029,-0.034,-0.001,-0.049,103.0,102.0,100.0,13.4,1505.2,321.5,-0.8,1.8,2470.929,13.29,0.034,268.3
2022-07-30T03:46:03,42.805,6.029,-0.041,0.012,-0.033,102.0,100.0,101.0,13.3,1505.2,320.5,-0.8,1.8,2470.892,13.29,0.042,286.3
2022-07-30T03:49:03,42.805,6.029,-0.008,-0.026,-0.064,103.0,102.0,100.0,13.3,1505.2,332.6,-0.7,1.8,2470.923,13.29,0.027,197.1
2022-07-30T03:52:03,42.805,6.029,-0.022,0.012,-0.027,102.0,102.0,100.0,13.4,1505.2,323.2,-0.7,1.8,2470.932,13.29,0.025,298.6
2022-07-30T03:55:03,42.805,6.029,0.003,-0.013,-0.027,103.0,102.0,102.0,13.4,1505.2,322.1,-0.8,1.8,2470.914,13.29,0.013,167.0
2022-07-30T03:58:03,42.805,6.029,-0.039,-0.015,-0.074,103.0,102.0,100.0,13.4,1505.2,332.6,-0.7,1.8,2470.906,13.29,0.041,249.0
2022-07-30T04:04:03,42.805,6.029,-0.031,0.014,-0.055,102.0,101.0,100.0,13.3,1505.2,325.5,-0.8,1.8,2470.951,13.28,0.034,294.3
2022-07-30T04:07:03,42.805,6.029,-0.011,0.039,-0.012,101.0,103.0,101.0,13.4,1505.2,328.5,-0.8,1.8,2470.949,13.28,0.04,344.3
2022-07-30T04:10:03,42.805,6.029,-0.04,0.031,-0.008,103.0,103.0,99.0,13.3,1505.2,325.6,-0.8,1.9,2470.937,13.28,0.05,307.8
2022-07-30T04:13:03,42.805,6.029,-0.013,0.015,-0.014,102.0,103.0,98.0,13.4,1505.2,329.9,-0.8,1.8,2470.954,13.28,0.019,319.1
2022-07-30T04:16:03,42.805,6.029,-0.046,0.005,-0.069,101.0,102.0,100.0,13.4,1505.2,328.5,-0.8,1.8,2470.924,13.29,0.046,276.2
2022-07-30T04:19:03,42.805,6.029,-0.03,0.02,-0.018,100.0,102.0,101.0,13.4,1505.2,330.4,-0.8,1.8,2470.946,13.29,0.036,303.7
2022-07-30T04:22:03,42.805,6.029,-0.029,0.023,-0.044,102.0,102.0,99.0,13.4,1505.2,333.4,-0.8,1.9,2470.936,13.29,0.037,308.4
2022-07-30T04:25:03,42.805,6.029,-0.038,-0.007,-0.044,100.0,101.0,101.0,13.4,1505.2,320.0,-0.7,1.8,2470.937,13.29,0.038,259.6
2022-07-30T04:28:03,42.805,6.029,-0.031,0.008,-0.001,101.0,101.0,101.0,13.4,1505.2,326.0,-0.8,1.8,2470.923,13.29,0.032,284.5
2022-07-30T04:31:03,42.805,6.029,-0.014,-0.003,-0.029,102.0,103.0,100.0,13.4,1505.2,323.7,-0.8,1.8,2470.943,13.29,0.014,257.9
2022-07-30T04:34:03,42.805,6.029,-0.028,0.003,-0.043,103.0,101.0,100.0,13.4,1505.2,326.1,-0.8,1.8,2470.947,13.29,0.028,276.1
2022-07-30T04:37:03,42.805,6.029,-0.04,0.015,-0.015,102.0,103.0,100.0,13.4,1505.2,322.4,-0.8,1.8,2470.932,13.29,0.042,290.6
2022-07-30T04:40:03,42.805,6.029,-0.022,-0.02,-0.059,103.0,100.0,102.0,13.4,1505.2,326.3,-0.8,1.8,2470.894,13.29,0.029,227.7
2022-07-30T04:43:03,42.805,6.029,-0.034,0.021,-0.054,103.0,102.0,100.0,13.4,1505.2,325.8,-0.8,1.8,2470.979,13.29,0.039,301.7
2022-07-30T04:46:03,42.805,6.029,-0.051,-0.004,-0.016,103.0,102.0,100.0,13.4,1505.2,319.8,-0.7,1.8,2470.963,13.29,0.051,265.5
2022-07-30T04:49:03,42.805,6.029,-0.041,0.01,-0.013,101.0,102.0,101.0,13.4,1505.2,322.3,-0.7,1.8,2470.918,13.29,0.042,283.7
2022-07-30T04:52:03,42.805,6.029,-0.04,0.009,-0.031,102.0,102.0,100.0,13.4,1505.2,331.3,-0.8,1.8,2470.916,13.29,0.041,282.7
2022-07-30T04:55:03,42.805,6.029,-0.017,0.003,-0.038,103.0,103.0,99.0,13.3,1505.2,325.4,-0.7,1.8,2470.946,13.29,0.017,280.0
2022-07-30T04:58:03,42.805,6.029,-0.015,0.006,-0.036,102.0,101.0,101.0,13.3,1505.2,329.7,-0.8,1.8,2470.935,13.29,0.016,291.8
2022-07-30T05:04:03,42.805,6.029,-0.01,0.02,-0.042,101.0,101.0,100.0,13.4,1505.2,325.8,-0.8,1.8,2470.972,13.28,0.022,333.4
2022-07-30T05:07:03,42.805,6.029,-0.015,0.007,-0.037,101.0,103.0,99.0,13.3,1505.2,329.9,-0.7,1.8,2470.991,13.28,0.016,295.0
2022-07-30T05:10:03,42.805,6.029,-0.039,0.005,-0.045,102.0,101.0,100.0,13.3,1505.2,332.4,-0.8,1.8,2470.98,13.28,0.039,277.3
2022-07-30T05:13:03,42.805,6.029,-0.009,0.03,-0.01,101.0,102.0,100.0,13.4,1505.2,329.1,-0.7,1.8,2470.944,13.28,0.031,343.3
2022-07-30T05:16:03,42.805,6.029,-0.02,0.009,-0.028,102.0,101.0,100.0,13.3,1505.2,325.4,-0.7,1.8,2470.971,13.29,0.021,294.2
2022-07-30T05:19:03,42.805,6.029,-0.014,0.006,-0.054,101.0,103.0,100.0,13.4,1505.2,327.9,-0.8,1.8,2470.999,13.29,0.015,293.2
2022-07-30T05:22:03,42.805,6.029,-0.031,0.002,-0.007,101.0,101.0,101.0,13.4,1505.2,330.5,-0.7,1.8,2470.977,13.29,0.031,273.7
2022-07-30T05:25:03,42.805,6.029,-0.02,0.009,-0.036,102.0,101.0,101.0,13.4,1505.2,320.7,-0.8,1.8,2470.947,13.29,0.021,294.2
2022-07-30T05:28:03,42.805,6.029,-0.015,0.022,-0.019,102.0,101.0,101.0,13.4,1505.2,330.2,-0.7,1.8,2470.955,13.29,0.026,325.7
2022-07-30T05:31:03,42.805,6.029,-0.018,-0.003,-0.039,101.0,101.0,101.0,13.4,1505.2,329.5,-0.7,1.8,2470.979,13.29,0.018,260.5
2022-07-30T05:34:03,42.805,6.029,-0.022,0.025,-0.01,101.0,102.0,101.0,13.4,1505.2,322.8,-0.8,1.9,2470.962,13.29,0.033,318.7
2022-07-30T05:37:03,42.805,6.029,-0.017,0.017,-0.013,102.0,101.0,99.0,13.4,1505.2,324.5,-0.8,1.8,2470.979,13.29,0.024,315.0
2022-07-30T05:40:03,42.805,6.029,-0.033,0.019,-0.035,102.0,101.0,102.0,13.4,1505.2,323.3,-0.8,1.8,2470.987,13.29,0.038,299.9
2022-07-30T05:43:03,42.805,6.029,-0.007,0.004,-0.063,102.0,101.0,101.0,13.4,1505.2,325.5,-0.8,1.8,2470.95,13.29,0.008,299.7
2022-07-30T05:46:03,42.805,6.029,-0.031,0.013,-0.031,102.0,101.0,100.0,13.4,1505.2,326.9,-0.7,1.8,2470.985,13.29,0.033,292.7
2022-07-30T05:49:03,42.805,6.029,-0.002,0.021,-0.018,101.0,101.0,101.0,13.4,1505.2,327.0,-0.8,1.9,2470.947,13.29,0.021,354.6
2022-07-30T05:52:03,42.805,6.029,-0.021,0.007,-0.028,102.0,101.0,101.0,13.4,1505.2,318.8,-0.7,1.8,2470.945,13.29,0.022,288.4
2022-07-30T05:55:03,42.805,6.029,-0.025,0.014,0.012,103.0,102.0,100.0,13.4,1505.2,323.6,-0.8,1.8,2470.986,13.29,0.028,299.3
2022-07-30T05:58:03,42.805,6.029,-0.018,-0.011,-0.042,102.0,102.0,100.0,13.4,1505.2,326.6,-0.7,1.9,2470.982,13.29,0.021,238.6
2022-07-30T06:04:03,42.805,6.029,-0.007,-0.007,-0.027,102.0,102.0,100.0,13.4,1505.2,319.4,-0.7,1.8,2470.999,13.28,0.009,225.0
2022-07-30T06:07:03,42.805,6.029,-0.022,0.012,-0.009,101.0,102.0,100.0,13.3,1505.2,328.3,-0.7,1.8,2471.034,13.28,0.025,298.6
2022-07-30T06:10:03,42.805,6.029,-0.036,0.01,-0.056,103.0,101.0,100.0,13.3,1505.2,324.6,-0.8,1.8,2470.96,13.28,0.037,285.5
2022-07-30T06:13:03,42.805,6.029,-0.009,0.012,0.003,102.0,102.0,101.0,13.4,1505.2,328.1,-0.8,1.8,2471.013,13.29,0.015,323.1
2022-07-30T06:16:03,42.805,6.029,-0.02,0.018,-0.044,102.0,102.0,100.0,13.4,1505.2,324.8,-0.7,1.8,2471.028,13.29,0.026,312.0
2022-07-30T06:19:03,42.805,6.029,-0.037,0.012,-0.026,101.0,102.0,100.0,13.4,1505.2,325.4,-0.8,1.8,2470.996,13.29,0.038,288.0
2022-07-30T06:22:03,42.805,6.029,-0.03,0.02,0.0,102.0,100.0,101.0,13.4,1505.2,319.0,-0.8,1.8,2470.983,13.29,0.036,303.7
2022-07-30T06:25:03,42.805,6.029,-0.028,0.009,-0.011,100.0,102.0,100.0,13.3,1505.2,322.6,-0.7,1.8,2470.951,13.29,0.029,287.8
2022-07-30T06:28:03,42.805,6.029,-0.043,0.006,-0.021,102.0,101.0,101.0,13.3,1505.2,324.9,-0.8,1.8,2471.004,13.29,0.043,277.9
2022-07-30T06:31:03,42.805,6.029,-0.027,-0.003,-0.029,102.0,103.0,100.0,13.4,1505.2,320.2,-0.8,1.8,2471.011,13.29,0.027,263.7
2022-07-30T06:34:03,42.805,6.029,0.0,0.017,-0.019,101.0,102.0,101.0,13.4,1505.2,327.4,-0.8,1.8,2471.008,13.29,0.017,0.0
2022-07-30T06:37:03,42.805,6.029,-0.007,-0.001,-0.006,101.0,104.0,100.0,13.3,1505.2,333.1,-0.8,1.8,2470.98,13.29,0.007,261.9
2022-07-30T06:40:03,42.805,6.029,-0.03,-0.004,-0.013,103.0,102.0,100.0,13.4,1505.2,324.0,-0.8,1.8,2471.015,13.29,0.03,262.4
2022-07-30T06:43:03,42.805,6.029,-0.023,0.011,-0.005,102.0,102.0,100.0,13.4,1505.2,327.2,-0.8,1.8,2471.012,13.29,0.025,295.6
2022-07-30T06:46:03,42.805,6.029,-0.023,0.029,0.007,102.0,102.0,101.0,13.3,1505.2,330.3,-0.8,1.8,2470.995,13.29,0.037,321.6
2022-07-30T06:49:03,42.805,6.029,0.002,0.013,-0.023,102.0,101.0,100.0,13.4,1505.2,320.9,-0.8,1.8,2470.986,13.29,0.013,8.7
2022-07-30T06:52:03,42.805,6.029,-0.023,0.012,-0.043,101.0,102.0,100.0,13.4,1505.2,320.5,-0.7,1.8,2470.995,13.29,0.025,297.6
2022-07-30T06:55:03,42.805,6.029,-0.025,0.02,-0.006,101.0,101.0,100.0,13.4,1505.2,320.5,-0.8,1.8,2470.989,13.29,0.032,308.7
2022-07-30T06:58:03,42.805,6.029,-0.03,0.029,-0.038,100.0,101.0,100.0,13.3,1505.2,328.2,-0.8,1.8,2471.013,13.29,0.041,314.0
2022-07-30T07:04:03,42.805,6.029,-0.032,0.01,-0.026,101.0,101.0,100.0,13.4,1505.2,319.0,-0.8,1.8,2471.067,13.28,0.033,287.4
2022-07-30T07:07:03,42.805,6.029,-0.019,0.017,-0.026,102.0,102.0,101.0,13.4,1505.2,333.4,-0.8,1.8,2471.019,13.28,0.025,311.8
2022-07-30T07:10:03,42.805,6.029,-0.036,0.0,-0.033,102.0,101.0,100.0,13.3,1505.2,319.7,-0.7,1.8,2471.026,13.28,0.036,270.0
2022-07-30T07:13:03,42.805,6.029,-0.009,0.015,-0.056,101.0,102.0,99.0,13.3,1505.2,329.6,-0.8,1.8,2471.071,13.29,0.017,329.0
2022-07-30T07:16:03,42.805,6.029,-0.029,-0.006,-0.058,101.0,102.0,100.0,13.4,1505.2,327.1,-0.7,1.8,2471.033,13.29,0.029,258.3
2022-07-30T07:19:03,42.805,6.029,0.011,0.028,-0.013,102.0,102.0,100.0,13.4,1505.2,329.7,-0.8,1.8,2471.042,13.29,0.03,21.4
2022-07-30T07:22:03,42.805,6.029,-0.001,0.008,-0.025,102.0,100.0,100.0,13.4,1505.2,325.6,-0.8,1.8,2471.013,13.29,0.008,352.9
2022-07-30T07:25:03,42.805,6.029,-0.008,0.011,-0.024,102.0,101.0,101.0,13.3,1505.2,331.3,-0.8,1.8,2471.028,13.29,0.013,324.0
2022-07-30T07:28:03,42.805,6.029,-0.036,0.031,-0.035,101.0,101.0,101.0,13.3,1505.2,327.2,-0.8,1.8,2471.028,13.29,0.047,310.7
2022-07-30T07:31:03,42.805,6.029,-0.029,0.018,-0.038,101.0,103.0,99.0,13.3,1505.2,332.4,-0.8,1.8,2471.055,13.29,0.034,301.8
2022-07-30T07:34:03,42.805,6.029,0.006,0.018,-0.002,101.0,101.0,100.0,13.3,1505.2,320.1,-0.8,1.8,2471.049,13.29,0.018,18.4
2022-07-30T07:37:03,42.805,6.029,-0.012,0.01,-0.008,101.0,102.0,100.0,13.3,1505.2,326.9,-0.8,1.8,2471.012,13.29,0.015,309.8
2022-07-30T07:40:03,42.805,6.029,0.0,-0.016,-0.025,101.0,102.0,101.0,13.3,1505.2,326.7,-0.8,1.8,2471.057,13.29,0.016,180.0
2022-07-30T07:43:03,42.805,6.029,-0.032,0.016,-0.017,102.0,101.0,101.0,13.4,1505.2,327.9,-0.8,1.8,2471.039,13.29,0.035,296.6
2022-07-30T07:46:03,42.805,6.029,-0.008,0.01,-0.032,102.0,101.0,100.0,13.4,1505.2,319.6,-0.8,1.8,2470.986,13.29,0.012,321.3
2022-07-30T07:49:03,42.805,6.029,-0.025,0.002,-0.037,102.0,102.0,100.0,13.4,1505.2,323.7,-0.8,1.8,2471.012,13.29,0.025,274.6
2022-07-30T07:52:03,42.805,6.029,-0.013,-0.014,-0.017,102.0,102.0,100.0,13.4,1505.2,322.8,-0.7,1.8,2471.04,13.29,0.019,222.9
2022-07-30T07:55:03,42.805,6.029,-0.018,0.004,-0.022,101.0,102.0,100.0,13.4,1505.2,324.1,-0.8,1.8,2471.005,13.29,0.018,282.5
2022-07-30T07:58:03,42.805,6.029,-0.024,0.011,-0.051,102.0,102.0,100.0,13.4,1505.2,329.5,-0.8,1.8,2470.994,13.29,0.026,294.6
2022-07-30T08:04:03,42.805,6.029,-0.026,-0.001,-0.031,102.0,103.0,100.0,13.4,1505.2,319.5,-0.8,1.8,2471.068,13.28,0.026,267.8
2022-07-30T08:07:03,42.805,6.029,-0.042,0.016,-0.03,102.0,102.0,101.0,13.4,1505.2,323.3,-0.8,1.8,2471.057,13.28,0.044,290.9
2022-07-30T08:10:03,42.805,6.029,-0.005,-0.015,-0.044,102.0,102.0,99.0,13.4,1505.2,323.1,-0.7,1.8,2471.049,13.28,0.015,198.4
2022-07-30T08:13:03,42.805,6.029,-0.023,0.013,-0.01,101.0,101.0,100.0,13.4,1505.2,322.3,-0.8,1.8,2471.033,13.28,0.026,299.5
2022-07-30T08:16:03,42.805,6.029,-0.029,0.012,-0.033,101.0,101.0,100.0,13.3,1505.2,323.6,-0.7,1.8,2471.042,13.29,0.031,292.5
2022-07-30T08:19:03,42.805,6.029,-0.027,0.018,-0.026,103.0,100.0,100.0,13.4,1505.2,328.3,-0.8,1.8,2470.984,13.29,0.032,303.7
2022-07-30T08:22:03,42.805,6.029,-0.004,0.006,-0.046,100.0,103.0,99.0,13.4,1505.2,322.2,-0.8,1.8,2471.035,13.29,0.007,326.3
2022-07-30T08:25:03,42.805,6.029,-0.035,0.023,-0.041,101.0,100.0,100.0,13.4,1505.2,327.9,-0.8,1.8,2471.035,13.29,0.041,303.3
2022-07-30T08:28:03,42.805,6.029,-0.025,0.011,-0.031,101.0,101.0,100.0,13.4,1505.2,323.5,-0.8,1.8,2471.041,13.29,0.027,293.7
2022-07-30T08:31:03,42.805,6.029,-0.009,0.01,-0.036,101.0,101.0,100.0,13.3,1505.2,329.9,-0.8,1.8,2470.997,13.29,0.013,318.0
2022-07-30T08:34:03,42.805,6.029,-0.027,0.004,-0.029,102.0,101.0,100.0,13.4,1505.2,318.9,-0.7,1.8,2470.995,13.29,0.027,278.4
2022-07-30T08:37:03,42.805,6.029,-0.012,-0.004,-0.049,101.0,100.0,100.0,13.4,1505.2,325.2,-0.7,1.8,2471.011,13.29,0.012,251.6
2022-07-30T08:40:03,42.805,6.029,-0.012,-0.021,-0.073,101.0,101.0,100.0,13.3,1505.2,325.3,-0.7,1.8,2471.009,13.29,0.024,209.7
2022-07-30T08:43:03,42.805,6.029,-0.016,0.03,-0.014,101.0,101.0,100.0,13.3,1505.2,325.9,-0.8,1.8,2471.017,13.29,0.034,331.9
2022-07-30T08:46:03,42.805,6.029,-0.018,0.003,-0.052,101.0,101.0,100.0,13.4,1505.2,323.4,-0.7,1.9,2471.025,13.29,0.018,279.5
2022-07-30T08:49:03,42.805,6.029,-0.028,-0.005,-0.038,99.0,102.0,101.0,13.4,1505.2,331.0,-0.7,1.8,2471.027,13.29,0.028,259.9
2022-07-30T08:52:03,42.805,6.029,-0.008,-0.012,-0.049,101.0,102.0,100.0,13.4,1505.2,328.8,-0.8,1.8,2471.016,13.29,0.014,213.7
2022-07-30T08:55:03,42.805,6.029,-0.018,-0.008,-0.057,101.0,102.0,100.0,13.4,1505.2,329.3,-0.8,1.8,2471.007,13.29,0.019,246.0
2022-07-30T08:58:03,42.805,6.029,-0.006,-0.002,-0.026,101.0,102.0,100.0,13.4,1505.2,322.3,-0.8,1.8,2470.996,13.29,0.006,251.6
2022-07-30T09:04:03,42.805,6.029,-0.005,0.002,-0.048,101.0,102.0,100.0,13.4,1505.2,320.5,-0.8,1.8,2471.072,13.28,0.005,291.8
2022-07-30T09:07:03,42.805,6.029,-0.013,-0.008,-0.058,102.0,101.0,101.0,13.4,1505.2,327.8,-0.7,1.8,2471.061,13.28,0.015,238.4
2022-07-30T09:10:03,42.805,6.029,-0.017,0.018,-0.019,101.0,103.0,99.0,13.4,1505.2,322.7,-0.8,1.8,2471.086,13.28,0.024,316.6
2022-07-30T09:13:03,42.805,6.029,-0.022,0.012,-0.004,103.0,101.0,99.0,13.4,1505.2,328.7,-0.7,1.8,2471.026,13.29,0.025,298.6
2022-07-30T09:16:03,42.805,6.029,-0.023,0.001,-0.024,101.0,101.0,101.0,13.4,1505.2,332.6,-0.8,1.8,2471.048,13.29,0.023,272.5
2022-07-30T09:19:03,42.805,6.029,-0.006,-0.016,-0.045,102.0,101.0,101.0,13.4,1505.2,332.1,-0.8,1.8,2471.023,13.29,0.017,200.6
2022-07-30T09:22:03,42.805,6.029,-0.018,-0.003,-0.014,102.0,101.0,100.0,13.3,1505.2,325.0,-0.7,1.8,2470.987,13.29,0.018,260.5
2022-07-30T09:25:03,42.805,6.029,-0.023,0.0,-0.06,102.0,102.0,100.0,13.3,1505.2,328.0,-0.7,1.8,2470.997,13.29,0.023,270.0
2022-07-30T09:28:03,42.805,6.029,0.0,0.004,-0.037,102.0,104.0,100.0,13.4,1505.2,320.1,-0.8,1.8,2471.027,13.29,0.004,0.0
2022-07-30T09:31:03,42.805,6.029,-0.036,-0.001,-0.023,102.0,101.0,101.0,13.3,1505.2,331.9,-0.8,1.8,2471.001,13.29,0.036,268.4
2022-07-30T09:34:03,42.805,6.029,-0.007,0.003,0.008,103.0,99.0,101.0,13.3,1505.2,328.2,-0.8,1.8,2470.976,13.29,0.007,293.2
2022-07-30T09:37:03,42.805,6.029,-0.022,-0.002,-0.03,102.0,102.0,102.0,13.4,1505.2,324.7,-0.8,1.8,2470.986,13.29,0.022,264.8
2022-07-30T09:40:03,42.805,6.029,-0.025,-0.013,-0.033,102.0,101.0,100.0,13.4,1505.2,320.8,-0.7,1.8,2470.978,13.29,0.028,242.5
2022-07-30T09:43:03,42.805,6.029,-0.016,-0.003,0.0,102.0,102.0,100.0,13.4,1505.2,328.8,-0.8,1.8,2470.955,13.29,0.016,259.4
2022-07-30T09:46:03,42.805,6.029,-0.006,-0.004,-0.021,100.0,104.0,100.0,13.3,1505.2,325.5,-0.7,1.9,2471.01,13.29,0.007,236.3